FW2020 Weather Reports


time (UTC)temp
C
wind
direction
speed
KPH
gust
KPH
rain 1hr
cm
rain 24hr
cm
rain mn
cm
humidity
%
barometer
mb
20260507011225 13 225 9.7 11.3 0.00 0.08 0.08 99 1009.1
20260507010228 13 158 6.4 8.0 0.00 0.08 0.08 99 1009.2
20260507005229 13 163 8.0 12.9 0.00 0.08 0.08 99 1009.2
20260507004232 13 194 8.0 8.0 0.00 0.08 0.08 99 1009.1
20260507003216 13 299 9.7 12.9 0.00 0.08 0.08 99 1008.9
20260507002219 13 193 9.7 11.3 0.00 0.08 0.08 99 1008.9
20260507001221 13 120 8.0 11.3 0.00 0.08 0.08 99 1008.9
20260507000224 13 12.9 16.1 0.00 0.08 0.08 99 1008.9
20260506235226 13 45 11.3 12.9 0.03 0.08 0.08 99 1009.0
20260506234223 -17 0.0 0.0 0.03 0.08 0.08 1008.9
20260506233240 -17 0.0 0.0 0.03 0.08 0.08 1008.9
20260506232215 -17 0.0 0.0 0.03 0.08 0.08 1008.9
20260506231217 -17 0.0 0.0 0.03 0.08 0.08 1008.9
20260506230220 13 225 11.3 16.1 0.03 0.08 0.08 99 1008.9
20260506225223 -17 0.0 0.0 0.00 0.05 0.05 1008.9
20260506224225 13 146 6.4 8.0 0.00 0.05 0.05 98 1008.9
20260506223227 13 248 8.0 9.7 0.00 0.05 0.05 98 1008.8
20260506222229 13 270 11.3 11.3 0.00 0.05 0.05 98 1008.8
20260506221232 13 200 9.7 9.7 0.03 0.05 0.05 98 1008.8
20260506220216 13 158 9.7 9.7 0.03 0.05 0.05 98 1008.9
20260506215219 -17 264 9.7 11.3 0.03 0.05 0.05 1009.3
20260506214302 -17 171 9.7 16.1 0.03 0.05 0.05 1009.4
20260506213224 13 270 8.0 9.7 0.03 0.05 0.05 97 1009.4
20260506212309 14 203 9.7 11.3 0.03 0.05 0.05 96 1009.4
20260506211229 14 12.9 12.9 0.00 0.03 0.03 95 1009.6
20260506210246 14 248 11.3 12.9 0.00 0.03 0.03 94 1009.5
20260506205216 14 200 11.3 17.7 0.00 0.03 0.03 94 1009.6
20260506204220 15 113 11.3 17.7 0.00 0.03 0.03 94 1009.7
20260506203216 15 113 9.7 11.3 0.00 0.03 0.03 94 1009.8
20260506202224 15 238 11.3 12.9 0.03 0.03 0.03 95 1009.8
20260506201226 15 171 12.9 14.5 0.03 0.03 0.03 94 1010.0
20260506200229 15 179 14.5 14.5 0.03 0.03 0.03 93 1010.0
20260506195233 15 169 16.1 24.1 0.03 0.03 0.03 92 1010.1
20260506194216 15 248 9.7 9.7 0.03 0.03 0.03 93 1010.1
20260506193218 15 115 12.9 16.1 0.03 0.03 0.03 93 1010.3
20260506192221 15 158 8.0 9.7 0.00 0.00 0.00 91 1010.3
20260506191224 16 348 9.7 11.3 0.00 0.00 0.00 88 1010.3
20260506190227 16 193 11.3 12.9 0.00 0.00 0.00 85 1010.4
20260506185231 16 113 8.0 9.7 0.00 0.00 0.00 83 1010.6
20260506184231 17 315 12.9 14.5 0.00 0.00 0.00 78 1010.7
20260506183236 17 128 19.3 24.1 0.00 0.00 0.00 77 1010.8
20260506182218 17 50 19.3 27.4 0.00 0.00 0.00 76 1010.8
20260506181242 17 113 19.3 20.9 0.00 0.00 0.00 74 1011.2
20260506180222 18 113 22.5 25.7 0.00 0.00 0.00 74 1010.8
20260506175219 18 163 8.0 11.3 0.00 0.00 0.00 72 1011.2
20260506174215 18 158 11.3 12.9 0.00 0.00 0.00 72 1011.4
20260506173230 19 206 16.1 17.7 0.00 0.00 0.00 70 1011.7
20260506172232 20 315 14.5 20.9 0.00 0.00 0.00 69 1011.7
20260506171259 20 59 22.5 25.7 0.00 0.00 0.00 68 1011.4
20260506170219 20 90 20.9 22.5 0.00 0.00 0.00 67
20260506165221 20 159 14.5 16.1 0.00 0.00 0.00 67 1011.7
20260506164225 20 277 17.7 22.5 0.00 0.00 0.00 68 1011.8
20260506163226 21 42 14.5 16.1 0.00 0.00 0.00 66 1011.9
20260506162229 20 124 11.3 14.5 0.00 0.00 0.00 68 1011.9
20260506161231 20 221 14.5 24.1 0.00 0.00 0.00 68 1012.2
20260506160215 20 171 11.3 17.7 0.00 0.00 0.00 67 1012.3
20260506155218 21 185 14.5 17.7 0.00 0.00 0.00 64 1012.3
20260506154220 21 243 17.7 20.9 0.00 0.00 0.00 64 1012.2
20260506153224 21 80 16.1 19.3 0.00 0.00 0.00 63 1012.4
20260506152226 21 168 19.3 25.7 0.00 0.00 0.00 64 1012.4
20260506151222 21 230 16.1 17.7 0.00 0.00 0.00 66 1012.5
20260506150219 20 248 12.9 16.1 0.00 0.00 0.00 67 1012.7
20260506145215 20 20.9 22.5 0.00 0.00 0.00 67 1012.5
20260506144218 20 209 12.9 17.7 0.00 0.00 0.00 68 1012.3
20260506143220 -17 200 12.9 12.9 0.00 0.00 0.00 1012.5
20260506142224 20 16.1 17.7 0.00 0.00 0.00 68 1012.5
20260506141224 20 135 16.1 19.3 0.00 0.00 0.00 68 1012.7
20260506140227 20 225 11.3 16.1 0.00 0.00 0.00 70 1012.4
20260506135230 19 248 11.3 12.9 0.00 0.00 0.00 71 1012.5
20260506134232 19 174 11.3 12.9 0.00 0.00 0.00 71 1012.7
20260506133217 19 158 11.3 16.1 0.00 0.00 0.00 71 1012.9
20260506132219 18 113 16.1 19.3 0.00 0.00 0.00 73 1012.9
20260506131223 18 191 9.7 9.7 0.00 0.00 0.00 74 1012.9
20260506130224 18 320 16.1 20.9 0.00 0.00 0.00 76 1012.9
20260506125228 17 246 12.9 14.5 0.00 0.00 0.00 77 1012.9
20260506124229 17 203 9.7 12.9 0.00 0.00 0.00 79 1012.9
20260506123226 16 300 12.9 14.5 0.00 0.00 0.00 80 1012.9
20260506122215 16 180 9.7 11.3 0.00 0.00 0.00 82 1012.9
20260506121218 16 97 11.3 14.5 0.00 0.00 0.00 84 1012.9
20260506120220 15 68 6.4 8.0 0.00 0.00 0.00 87 1013.2
20260506115223 15 68 8.0 9.7 0.00 0.00 0.00 89 1013.2
20260506114225 15 194 12.9 17.7 0.00 0.00 0.00 89 1013.4
20260506113228 15 204 8.0 9.7 0.00 0.00 0.00 89 1013.2
20260506112231 15 293 12.9 14.5 0.00 0.00 0.00 89 1013.2
20260506111232 14 28 9.7 12.9 0.00 0.00 0.00 92 1013.4
20260506110217 13 90 9.7 12.9 0.00 0.00 0.00 93 1013.2
20260506105219 13 2 8.0 11.3 0.00 0.00 0.00 93 1013.2
20260506104222 13 68 9.7 16.1 0.00 0.00 0.00 93 1012.9
20260506103225 13 158 14.5 16.1 0.00 0.00 0.00 94 1013.0
20260506102227 -17 358 4.8 4.8 0.00 0.00 0.00 1013.0
20260506101250 13 248 8.0 9.7 0.00 0.00 0.00 94 1012.9
20260506100232 13 131 8.0 9.7 0.00 0.00 0.00 94 1012.9
20260506095217 13 195 9.7 14.5 0.00 0.00 0.00 94 1012.9
20260506094226 13 225 4.8 4.8 0.00 0.00 0.00 93 1012.7
20260506093224 -17 71 11.3 11.3 0.00 0.00 0.00 1012.9
20260506092219 13 68 8.0 8.0 0.00 0.00 0.00 92 1012.9
20260506091216 -17 102 8.0 9.7 0.00 0.00 0.00 1012.9
20260506090219 13 36 8.0 8.0 0.00 0.00 0.00 92 1013.0
20260506085221 13 180 9.7 11.3 0.00 0.00 0.00 91 1013.2
20260506084224 13 192 12.9 14.5 0.00 0.00 0.00 91 1013.2
20260506083226 13 146 9.7 14.5 0.00 0.00 0.00 90 1013.2
20260506082230 13 135 16.1 20.9 0.00 0.00 0.00 90 1013.2
20260506081252 14 167 9.7 11.3 0.00 0.00 0.00 90 1013.2
20260506080216 14 180 12.9 17.7 0.00 0.00 0.00 89 1013.2
20260506073223 14 203 8.0 12.9 0.00 0.00 0.00 88 1013.2
20260506072226 14 90 9.7 12.9 0.00 0.00 0.00 88 1013.2
20260506071228 -17 115 9.7 9.7 0.00 0.00 0.00 1013.0
20260506070251 14 183 12.9 16.1 0.00 0.00 0.00 87 1012.9
20260506062217 -17 132 11.3 11.3 0.00 0.00 0.00 1012.9
20260506061225 14 68 17.7 20.9 0.00 0.00 0.00 86 1013.2
20260506060227 14 203 9.7 11.3 0.00 0.00 0.00 86 1013.2
20260506051222 -17 139 8.0 9.7 0.00 0.00 0.00 1013.5
20260506050224 14 239 19.3 22.5 0.00 0.00 0.00 82 1013.7
20260506044229 15 203 11.3 14.5 0.00 0.00 0.00 79 1013.5
20260506043232 15 113 11.3 11.3 0.00 0.00 0.00 78 1013.4
20260506042216 15 239 11.3 12.9 0.00 0.00 0.00 77 1013.4
20260506041219 15 259 8.0 12.9 0.00 0.00 0.00 77 1013.4
20260506040221 15 270 11.3 11.3 0.00 0.00 0.00 77 1013.2
20260506035224 15 168 17.7 24.1 0.00 0.00 0.00 77 1013.2
20260506034242 15 166 17.7 19.3 0.00 0.00 0.00 76 1013.2
20260506033217 15 166 9.7 11.3 0.00 0.00 0.00 76 1013.2
20260506032232 15 334 16.1 20.9 0.00 0.00 0.00 74 1013.2
20260506031216 15 227 17.7 24.1 0.00 0.00 0.00 73 1013.0
20260506030218 15 102 12.9 17.7 0.00 0.00 0.00 72 1013.2
20260506025220 15 113 16.1 19.3 0.00 0.00 0.00 72 1013.0
20260506024223 15 137 16.1 20.9 0.00 0.00 0.00 72 1013.0
20260506023227 15 113 19.3 24.1 0.00 0.00 0.00 72 1013.0
20260506022229 15 28 14.5 20.9 0.00 0.00 0.00 72 1013.0
20260506021231 15 158 17.7 24.1 0.00 0.00 0.00 72 1013.2
20260506020216 15 158 12.9 16.1 0.00 0.00 0.00 71 1013.0
20260506015218 15 270 20.9 22.5 0.00 0.00 0.00 72 1012.9
20260506014220 15 180 17.7 22.5 0.00 0.00 0.00 72 1013.0
20260506013223 15 158 12.9 19.3 0.00 0.00 0.00 72 1013.0
20260506012227 15 180 19.3 22.5 0.00 0.00 0.00 73 1013.0